Regional Weather Roundup
Issued by NWS Columbia, SC

Home | Current Version | Previous Version | Text Only | Print | Product List | Glossary On
Versions: 1 2 3 4 5 6 7 8 9 10 11 12 13 14 15 16 17 18 19 20 21 22 23 24 25 26 27
000
ASUS42 KCAE 080010
RWRCAE
REGIONAL WEATHER ROUNDUP
NATIONAL WEATHER SERVICE COLUMBIA SC
700 PM EST WED DEC 07 2016

NOTE: "FAIR" INDICATES FEW OR NO CLOUDS BELOW 12,000 FEET WITH NO
SIGNIFICANT WEATHER AND/OR OBSTRUCTIONS TO VISIBILITY.

NOT ALL STATIONS ARE QUALITY CONTROLLED BY THE NATIONAL
WEATHER SERVICE. USE DATA WITH CAUTION...ESPECIALLY
DEWPOINT OBSERVATIONS.

SCZ001>056-GAZ040-063>065-077-080100-
...UPSTATE SOUTH CAROLINA...

CITY           SKY/WX    TMP DP  RH WIND       PRES   REMARKS
ANDERSON       CLEAR     50  47  89 CALM      30.07R
6HR MIN TEMP:  49; 6HR MAX TEMP:  58;

LIBERTY        CLOUDY    50  47  90 CALM      30.05R
6HR MIN TEMP:  50; 6HR MAX TEMP:  56;

SPARTANBURG    CLOUDY    52  45  76 CALM      30.06R
CLEMSON        PTCLDY    52  48  86 CALM      30.07R
6HR MIN TEMP:  52; 6HR MAX TEMP:  60;

GREENVILLE     CLOUDY    52  47  83 S6        30.07R
6HR MIN TEMP:  52; 6HR MAX TEMP:  59;

GREENWOOD      CLOUDY    50  47  89 CALM      30.09R
6HR MIN TEMP:  50; 6HR MAX TEMP:  52;

GREER          CLOUDY    51  46  83 S9        30.06R
6HR MIN TEMP:  51; 6HR MAX TEMP:  58;

ROCK HILL      CLOUDY    52  48  86 CALM      30.05S
6HR MIN TEMP:  52; 6HR MAX TEMP:  57;

CHESTER        CLOUDY    52  48  87 CALM      30.06S
LAURENS          N/A     50  50 100 SW6       30.07R


...CENTRAL SOUTH CAROLINA...

CITY           SKY/WX    TMP DP  RH WIND       PRES   REMARKS
COLUMBIA APT   CLOUDY    54  50  86 CALM      30.08R
6HR MIN TEMP:  54; 6HR MAX TEMP:  58;

COLUMBIA OWENS CLOUDY    54  49  83 SW5       30.10R
6HR MIN TEMP:  54; 6HR MAX TEMP:  58;

MCENTIRE ANGB  CLOUDY    53  50  89 SW7       30.09R
6HR MIN TEMP:  53; 6HR MAX TEMP:  59; 6HR PCP:  0.01;

ORANGEBURG     CLOUDY    53  51  93 CALM      30.09R
6HR MIN TEMP:  52; 6HR MAX TEMP:  54;

SUMTER SHAW    MOCLDY    51  47  86 SW3       30.06R
6HR MIN TEMP:  51; 6HR MAX TEMP:  63; 6HR PCP: TRACE;

NEWBERRY       CLOUDY    50  50 100 S3        30.11R FOG
AIKEN          CLOUDY    50  50 100 CALM      30.10S
LANCASTER      CLOUDY    54  52  94 CALM      30.06F
WINNSBORO      CLOUDY    52  50  93 SW3       30.07R


...EASTERN AND COASTAL SOUTH CAROLINA...

CITY           SKY/WX    TMP DP  RH WIND       PRES   REMARKS
N MYRTLE BCH   CLEAR     51  48  89 CALM      30.07R
6HR MIN TEMP:  51; 6HR MAX TEMP:  62;

CONWAY         FAIR      48  46  93 CALM      30.09R
MARION         FAIR      50  46  87 CALM      30.08R
HARTSVILLE     CLOUDY    54  50  87 CALM      30.06S
FLORENCE       CLOUDY    57  49  74 CALM      30.07R
6HR MIN TEMP:  55; 6HR MAX TEMP:  63;

DARLINGTON     CLOUDY    54  51  90 CALM      30.08R
6HR MIN TEMP:  50; 6HR MAX TEMP:  62;

CHARLESTON APT CLEAR     52  49  89 NW3       30.08R
6HR MIN TEMP:  52; 6HR MAX TEMP:  62;

WALTERBORO     PTCLDY    54 N/A N/A CALM      30.09R
BEAUFORT       CLEAR     55  53  93 CALM      30.08R
6HR MIN TEMP:  55; 6HR MAX TEMP:  60;

HILTON HEAD    CLEAR     54  52  94 MISG      30.08R


...EASTERN GEORGIA...

CITY           SKY/WX    TMP DP  RH WIND       PRES   REMARKS
AUGUSTA BUSH F CLOUDY    54  51  90 CALM      30.07R
6HR MIN TEMP:  53; 6HR MAX TEMP:  58;

AUGUSTA DANIEL PTCLDY    53  49  86 CALM      30.08R
6HR MIN TEMP:  53; 6HR MAX TEMP:  56;

THOMSON          N/A     49  49 100 CALM      30.12R VSB 3/4
6HR MIN TEMP:  49; 6HR MAX TEMP:  57;

WASHINGTON     FAIR      46  46 100 CALM      30.07R FOG
CLAXTON        CLOUDY   N/A N/A N/A CALM      30.07R
SYLVANIA       MOCLDY   N/A N/A N/A CALM      30.09R
STATESBORO     PTCLDY    56  55  97 CALM      30.07R
SAVANNAH       PTCLDY    57  54  89 SE5       30.08R
6HR MIN TEMP:  57; 6HR MAX TEMP:  64;



...SOUTHERN NORTH CAROLINA...

CITY           SKY/WX    TMP DP  RH WIND       PRES   REMARKS
CHARLOTTE      CLOUDY    53  43  68 CALM      30.06R
6HR MIN TEMP:  51; 6HR MAX TEMP:  57;

MONROE         CLEAR     45  40  82 CALM      30.05S
6HR MIN TEMP:  45; 6HR MAX TEMP:  57;

WADESBORO      CLOUDY    52  47  85 CALM      30.06F
ROCKINGHAM     CLOUDY    51  49  92 CALM      30.06S
RUTHERFORDTON  PTCLDY    50  44  80 SE3       30.06R
ASHEVILLE      CLEAR     48  40  73 CALM      30.04R
6HR MIN TEMP:  47; 6HR MAX TEMP:  58;


$$




USA.gov is the U.S. government's official web portal to all federal, state and local government web resources and services.